{"data":{"norad_id":54003,"epoch":"2026-09-20T16:32:17.640384Z","epoch_age_seconds":70109,"freshness":"FRESH","line1":"1 54003U 22125AR  26263.68909306  .00000600  00000+0  55805-4 0  9996","line2":"2 54003  53.1598  57.8706 0001253  94.6338 265.4797 15.08835177218907","mean_motion":15.08835177,"eccentricity":0.0001253,"inclination_deg":53.1598,"raan_deg":57.8706,"arg_perigee_deg":94.6338,"mean_anomaly_deg":265.4797,"bstar":5.5805e-5,"rev_number":21890,"period_min":95.437859744438,"perigee_km":538.89131872499,"apogee_km":540.62494324482,"semimajor_km":6917.8951309849,"source":"CELESTRAK","updated_at":"2026-09-21T09:00:33.072914Z"}}